Location: Newark
(46.9000°N, 28.3500°E)
Time: 00:59:36
(UTC+00:00)

Explorer 7 - Pass Details

Date: 25 August 2019
Orbit: 485 x 680 km, 50.3° (Epoch: 19 September)

Event Time Altitude Azimuth Distance (km) Brightness Sun altitude
Rises 11:25:47 0° 291° (WNW) 2,922 10.6 50.4°
Reaches altitude 10° 11:28:10 10° 291° (WNW) 1,981 9.9 50.2°
Maximum altitude 11:32:42 85° 206° (SSW) 596 8.1 49.7°
Drops below altitude 10° 11:36:57 10° 116° (ESE) 1,848 9.6 49.3°
Sets 11:39:07 0° 116° (ESE) 2,708 10.3 49.1°
